Theta_e
327 328 327 327 328 328 327 327 327 329 330 330 331 330 330 330 329 328 327 327 327 328 328 329 328 328 328 329 329 328 328 328 327 326 325 323 321 321 320 321 323 324 324 323 323 324 324 324 324 324 324 325 326 326 326 326 326 326 326 326 326 326 326 325 324 322 321 321 319 317 317 316 315 315 315 314 315 316 317 316 315 313 311 310 309
327 328 327 327 327 327 327 327 327 327 328 330 330 330 330 330 329 329 326 325 327 329 328 328 327 327 328 328 328 327 326 326 326 325 325 324 321 321 320 320 322 324 323 323 323 323 323 324 324 324 325 326 326 326 326 326 326 326 326 326 326 326 326 325 324 322 320 319 318 316 317 316 315 315 314 314 314 315 315 314 313 311 309 309 308
327 328 327 327 327 326 326 327 326 327 328 329 329 329 330 330 329 329 327 325 328 329 328 328 326 326 326 327 328 327 325 325 325 324 324 324 322 321 321 322 323 324 323 323 323 324 324 324 324 324 325 326 326 326 326 326 326 326 326 326 325 325 325 324 323 322 321 320 319 319 318 317 316 315 315 313 312 313 314 313 310 308 307 306 306
327 327 327 327 327 324 324 326 327 326 327 328 328 327 328 328 328 328 327 327 329 329 328 327 325 324 324 325 326 326 325 325 325 324 324 322 321 321 323 324 323 323 322 322 323 324 325 325 324 324 325 325 326 326 326 326 325 325 325 325 324 324 324 323 323 322 322 322 321 321 320 318 317 316 315 313 310 309 310 309 307 306 306 305 304
326 327 326 327 328 325 325 326 326 325 326 327 327 327 327 327 326 326 326 327 329 329 327 326 325 324 323 324 325 326 326 326 326 325 323 321 321 323 324 323 322 322 322 321 322 324 326 326 325 325 325 325 326 326 326 325 325 324 324 324 323 323 323 322 322 322 322 322 322 322 321 320 318 317 316 314 310 307 307 306 305 305 304 304 304
325 326 326 327 328 327 328 328 326 325 325 327 327 326 326 326 326 326 325 327 329 328 327 326 326 325 325 325 326 326 326 326 325 323 321 321 322 323 322 321 321 322 321 321 322 324 326 326 325 326 326 325 326 326 325 325 324 323 323 322 322 322 321 321 321 321 321 321 321 321 321 321 319 317 316 315 311 308 307 307 307 307 306 306 306
323 324 325 326 326 327 328 328 327 326 325 326 327 326 326 326 326 326 326 326 327 327 327 327 327 327 327 327 326 325 324 324 322 321 321 321 321 321 321 321 321 321 322 322 323 324 326 326 326 326 326 325 324 324 324 323 322 321 321 321 320 320 320 320 320 320 321 321 321 321 321 321 319 317 316 315 313 311 309 309 310 310 310 310 309
322 323 324 325 325 326 327 328 328 327 325 325 326 326 326 326 326 327 327 326 326 326 327 328 328 327 327 324 321 321 322 322 321 322 322 321 320 320 320 321 321 321 322 322 323 325 326 326 326 326 325 323 321 321 321 320 320 319 319 319 319 318 319 319 319 320 320 320 320 320 320 321 319 317 316 315 314 313 312 311 312 312 311 311 311
322 323 323 324 325 326 327 327 328 327 326 325 325 326 326 326 327 327 327 326 326 326 327 327 327 326 323 320 319 321 322 322 322 322 321 320 319 319 319 320 320 321 322 322 324 326 326 326 326 325 322 321 320 320 320 319 319 319 319 319 318 318 318 318 318 319 319 318 318 318 319 319 318 317 316 315 314 314 313 313 313 312 312 312 312
322 323 323 323 324 325 326 326 326 327 327 325 325 326 327 327 327 326 326 326 326 326 326 326 324 322 319 320 322 323 323 323 323 322 321 319 319 319 319 319 320 321 321 322 324 326 326 325 324 323 321 321 321 320 320 320 320 320 320 319 319 319 319 319 319 319 318 318 318 318 318 318 317 317 316 316 315 314 314 313 313 313 312 312 312
322 322 322 323 324 325 325 326 326 327 327 326 327 327 327 327 326 325 325 326 325 325 324 321 318 318 319 322 323 323 323 323 322 321 320 319 319 319 319 319 320 321 321 322 326 326 324 323 322 321 321 321 321 321 321 321 320 320 320 320 320 320 319 319 319 319 319 318 318 318 318 318 318 317 316 316 315 315 315 315 315 314 314 313 314
321 321 321 322 324 324 325 326 326 326 327 327 327 327 327 327 326 325 324 326 325 323 321 317 314 318 322 323 323 322 322 322 321 321 320 319 319 320 320 320 320 321 321 323 325 325 323 322 321 321 321 321 320 320 320 320 320 320 320 320 319 319 319 319 319 319 318 318 318 318 318 319 318 318 318 317 317 317 317 317 317 316 316 315 316
321 321 321 322 323 324 325 325 325 325 326 326 326 327 327 327 326 325 324 325 325 321 319 317 317 320 323 323 322 322 322 321 321 320 320 319 319 320 321 321 321 321 322 323 323 323 322 321 321 321 321 320 320 320 319 319 319 318 318 318 318 318 318 318 318 318 317 318 318 318 318 318 318 318 318 318 318 318 318 317 317 317 317 317 317
319 319 320 321 322 323 324 325 325 325 325 326 326 326 326 325 325 324 322 323 324 321 319 319 320 321 322 322 322 322 322 321 320 318 319 319 319 320 321 321 321 322 322 322 322 321 321 321 321 320 319 318 318 318 318 318 318 317 316 315 315 316 317 317 317 318 317 317 317 317 318 318 318 318 318 318 318 318 318 318 318 317 318 318 318
318 318 318 319 320 321 322 323 324 324 325 326 326 326 324 323 324 324 323 323 322 320 319 320 320 320 321 322 322 321 321 320 318 317 319 319 319 319 320 321 321 322 323 322 321 321 321 320 318 316 314 313 313 313 314 314 314 313 313 313 314 315 316 317 318 318 318 318 318 318 318 318 318 318 318 318 318 318 318 317 317 318 318 318 318
318 318 318 318 318 320 321 322 323 323 324 325 325 326 325 324 324 324 323 323 322 320 320 320 319 319 320 321 321 321 320 319 318 318 320 320 319 319 319 320 320 321 322 322 321 320 319 316 314 313 312 312 312 312 313 313 313 313 312 313 314 315 316 317 318 318 318 319 318 319 319 319 319 319 319 318 318 318 317 317 317 318 318 317 317
318 318 318 318 318 319 320 321 321 322 322 323 323 324 324 323 322 322 321 320 321 321 321 321 320 319 318 319 320 320 319 318 319 320 321 320 321 320 320 320 320 321 322 320 317 316 315 313 312 313 312 312 312 313 313 313 313 313 313 313 313 315 316 317 317 318 318 318 318 318 318 318 318 318 318 317 317 317 317 317 317 317 317 316 315
318 318 318 318 318 318 319 320 320 320 320 321 322 322 322 320 320 320 320 319 319 320 321 321 320 319 318 318 319 319 319 319 320 320 321 321 321 320 320 321 321 321 320 317 314 312 312 312 312 312 312 312 313 313 313 313 313 313 314 313 313 314 316 316 317 318 318 318 318 318 318 318 317 317 316 316 316 316 316 316 316 316 315 315 314
317 318 318 318 318 318 318 319 319 319 319 320 320 321 321 320 320 320 319 319 319 319 319 319 318 318 319 319 320 319 319 320 321 321 320 320 319 319 319 319 318 317 317 315 314 313 313 312 312 312 312 312 312 312 313 313 314 314 314 314 313 315 316 316 316 316 316 316 316 316 316 315 315 314 314 314 314 315 315 315 315 315 315 314 314
315 316 318 318 318 317 317 318 318 318 317 318 319 320 320 319 318 318 318 317 318 317 317 316 316 317 318 319 319 319 320 320 320 319 318 318 317 316 316 316 315 314 314 313 313 313 312 312 311 311 311 311 312 313 314 315 315 315 316 315 315 316 316 315 315 315 314 314 314 313 312 311 311 311 310 310 311 312 312 312 312 313 314 314 313
313 315 316 317 318 317 317 318 317 317 316 316 317 317 317 317 316 317 317 316 316 316 316 315 316 316 316 316 317 317 317 317 316 316 316 315 315 314 314 315 315 314 314 313 313 313 313 313 313 313 313 313 314 315 316 316 316 316 316 316 315 315 314 313 313 313 312 311 309 307 306 306 306 306 306 306 306 307 309 309 309 311 311 311 312
310 313 314 315 316 316 317 317 317 317 317 316 316 316 316 315 316 316 316 316 316 316 316 315 315 315 314 314 315 315 314 314 314 314 314 313 313 313 313 314 314 314 315 315 315 315 315 315 316 316 316 316 316 316 315 315 315 315 314 314 313 312 311 310 309 308 307 305 304 303 302 301 301 301 301 301 302 304 305 306 306 308 309 309 309
307 310 312 313 313 314 315 315 316 316 316 316 316 316 315 315 316 316 316 316 316 315 315 314 314 314 313 313 314 314 313 313 313 313 313 313 313 313 313 312 313 315 316 317 316 316 316 316 316 316 316 316 315 314 314 314 313 312 311 310 309 307 306 305 304 303 301 300 300 299 299 298 298 298 298 298 299 301 302 303 305 306 306 306 306
304 306 308 309 310 311 312 313 314 314 314 314 314 314 314 314 314 314 314 315 315 314 314 314 313 313 313 313 313 313 312 312 312 312 312 312 312 312 312 313 314 315 316 316 316 316 316 316 315 315 315 314 313 312 311 310 309 307 306 304 303 302 301 301 300 299 299 298 298 298 298 298 297 297 297 297 298 300 302 304 305 305 304 304 304
300 302 303 305 306 307 309 310 311 312 312 312 313 313 312 312 312 312 312 313 313 313 313 313 313 313 312 312 312 312 312 312 312 312 312 313 313 313 314 315 315 315 314 314 314 314 314 313 312 311 310 309 307 306 305 304 303 303 302 301 300 299 299 299 299 299 298 298 298 298 297 297 296 296 296 297 298 301 303 303 303 303 303 303 303
297 298 299 301 302 304 305 307 308 309 310 311 311 311 311 311 310 310 310 310 311 310 310 310 310 310 309 309 309 309 309 309 310 310 311 311 310 310 309 309 309 309 309 309 309 309 309 308 307 305 303 302 301 301 301 301 301 300 300 299 299 299 299 299 299 298 298 298 297 297 296 296 296 296 296 296 297 299 300 301 301 301 301 301 301
298 297 297 297 299 300 302 303 304 305 307 308 309 309 309 309 309 308 308 307 307 307 307 307 307 307 306 306 305 305 305 305 305 306 306 306 305 304 303 302 302 303 303 304 304 304 303 303 302 301 299 299 300 300 300 300 300 300 299 299 300 300 300 299 299 298 298 297 297 296 296 296 297 297 297 297 297 298 298 299 300 300 300 301 300
299 298 297 297 296 297 298 299 300 301 302 303 305 306 306 306 306 306 306 305 304 304 303 303 304 305 304 304 303 302 301 301 301 302 303 305 305 304 302 301 301 302 302 302 301 300 299 298 298 298 299 300 300 301 300 300 300 300 300 300 300 300 300 300 299 299 298 297 297 297 297 297 297 297 297 298 298 298 298 299 300 300 300 300 300
298 298 298 298 297 296 296 296 296 297 298 298 299 300 301 301 301 301 302 301 300 300 299 298 298 299 299 299 299 298 297 297 297 297 298 299 300 299 298 297 298 298 298 297 297 297 297 298 299 300 301 301 301 301 301 301 301 301 301 301 301 301 301 300 299 299 298 297 297 297 297 297 297 297 297 298 298 298 298 298 298 299 299 299 299
299 298 298 297 297 297 297 296 296 296 296 296 296 296 296 296 296 297 297 297 296 297 297 296 296 295 295 295 295 295 295 295 295 295 295 295 295 295 295 296 296 296 296 297 298 299 299 300 301 301 301 301 301 301 301 301 301 301 301 301 301 301 300 299 298 297 297 297 297 296 297 297 297 297 297 297 297 298 298 298 297 298 298 298 298
299 298 298 297 297 297 298 297 297 296 296 295 295 295 295 296 296 295 296 296 295 295 295 295 295 295 295 295 295 294 295 295 294 295 295 295 295 296 296 297 297 298 298 299 300 300 300 300 301 301 301 301 301 301 301 301 301 301 301 301 301 299 298 297 297 297 297 297 297 296 296 296 296 297 297 296 296 296 297 297 297 297 297 298 298
298 298 298 298 297 297 297 297 296 296 295 295 295 295 295 295 295 295 295 295 295 295 295 295 295 295 295 295 295 295 295 295 294 295 295 296 296 297 297 298 298 299 299 299 300 301 301 300 301 301 301 301 301 301 301 301 301 301 300 299 298 297 296 296 296 296 297 297 297 296 296 296 296 296 296 296 296 296 297 297 297 297 297 297 297
297 297 297 297 297 297 297 296 296 296 295 295 294 294 294 294 295 295 295 294 294 294 294 294 294 295 295 295 295 295 295 295 294 295 296 297 298 298 298 298 298 298 298 298 299 300 300 300 300 300 300 300 300 299 299 298 298 298 297 296 296 296 296 297 297 297 297 296 296 296 296 296 295 296 296 296 296 297 297 297 297 296 296 296 296
296 297 297 297 297 296 297 297 296 296 295 295 294 294 294 295 295 294 294 294 294 294 294 294 294 295 295 295 295 296 297 297 296 297 297 298 298 298 298 298 298 297 297 296 297 298 298 298 298 298 298 297 297 296 296 296 296 296 296 296 297 297 297 297 297 297 296 296 296 296 296 295 295 296 296 296 296 296 296 296 296 296 295 295 294
296 296 296 297 297 297 297 296 296 296 295 295 295 295 295 295 295 294 294 293 293 294 294 295 295 295 295 295 295 296 297 298 298 298 298 298 298 298 298 299 298 297 297 296 296 296 297 297 296 296 296 296 296 296 296 296 296 296 296 296 296 296 297 297 296 296 296 296 296 296 296 295 296 296 296 296 296 296 295 295 295 294 294 293 293
296 295 295 296 296 296 296 296 295 295 295 295 295 295 295 295 294 294 293 293 294 294 294 295 295 295 295 295 295 295 296 297 297 298 298 298 298 298 298 298 297 297 296 296 296 296 296 296 296 295 295 295 296 296 296 296 296 296 296 296 296 296 296 296 296 296 295 295 296 296 296 296 296 296 295 295 295 295 294 294 293 293 293 293 293
296 296 295 295 296 296 295 295 295 294 294 295 295 295 294 294 293 293 293 294 294 294 295 295 295 295 295 295 295 295 295 296 296 297 297 298 298 298 298 297 297 296 296 296 295 295 294 294 294 294 294 294 294 295 295 295 295 295 295 295 296 296 296 295 295 295 296 296 296 296 296 295 295 295 294 294 294 294 293 293 292 292 293 293 293
296 296 295 295 295 296 296 295 295 294 294 294 294 294 294 294 293 293 293 294 295 295 295 296 295 295 295 295 295 295 295 295 295 296 296 297 297 297 297 296 296 295 294 294 293 293 293 293 293 293 293 293 294 294 294 294 294 294 295 295 295 295 295 295 295 295 295 295 295 295 295 295 294 294 293 293 293 293 292 292 292 292 292 292 292
296 296 296 296 296 296 296 295 295 295 294 294 294 294 294 293 293 293 293 294 294 295 295 295 295 295 295 295 295 295 295 295 295 295 295 296 296 296 295 295 294 293 293 292 292 292 292 292 292 292 293 293 294 294 294 294 294 294 294 294 294 294 295 295 295 295 295 295 294 294 294 294 293 293 293 293 293 292 292 292 292 292 292 291 291
296 296 296 296 296 295 295 295 295 295 295 294 294 294 294 294 293 293 293 293 294 295 295 295 295 294 294 295 294 294 295 295 295 295 295 295 294 294 293 293 292 292 292 292 293 292 292 292 292 292 292 293 294 294 294 294 294 294 294 294 294 294 294 294 294 294 294 294 294 293 293 293 293 293 293 293 293 292 292 292 292 291 291 291 291
296 296 296 296 296 296 295 295 294 294 294 294 294 294 294 294 294 293 293 293 293 294 295 295 294 294 294 294 294 294 295 295 295 294 294 293 293 293 292 292 292 292 292 293 293 293 292 292 292 292 292 293 294 294 294 294 294 294 294 294 294 294 294 294 293 293 294 294 293 293 293 293 293 293 293 292 292 292 292 291 291 291 291 290 290
296 296 296 295 295 296 295 294 294 294 294 294 294 294 294 294 294 294 294 293 293 293 294 295 294 294 294 294 294 294 294 294 294 294 293 293 293 293 292 292 292 292 292 293 293 293 293 292 292 292 292 292 293 294 294 294 294 294 294 293 293 293 293 293 293 293 293 293 293 293 293 293 293 292 292 292 292 292 292 291 291 290 290 290 290
296 296 296 295 295 296 296 295 294 294 294 294 294 294 294 294 294 294 293 293 293 293 294 294 294 294 294 294 294 294 294 294 294 293 293 293 293 293 293 293 293 293 293 293 293 293 293 292 292 292 292 292 292 292 293 293 294 294 294 294 293 293 293 293 293 293 293 293 293 293 293 292 292 292 291 291 291 291 291 291 290 290 290 290 290
295 296 296 296 295 296 296 296 295 294 294 295 295 295 294 294 294 294 294 293 293 293 293 294 294 294 293 294 294 294 294 293 293 293 293 293 293 293 293 293 293 293 293 292 292 292 292 292 291 291 291 291 291 291 291 292 293 293 293 293 293 293 293 293 293 293 293 293 293 293 292 292 292 291 291 291 291 291 291 290 290 290 290 290 290
295 295 296 296 296 295 296 295 295 295 295 295 295 295 295 295 294 294 293 293 293 293 293 294 294 293 293 293 293 294 294 294 293 293 293 293 293 293 293 292 292 292 292 291 291 291 291 291 291 291 291 290 290 290 290 290 291 291 292 293 293 293 292 292 293 293 293 293 292 292 292 291 291 291 291 291 290 290 290 290 290 290 289 290 290
295 295 296 296 296 296 296 295 295 295 295 295 295 295 295 295 295 294 293 293 293 293 293 293 293 293 293 293 293 293 293 293 293 293 292 292 292 292 292 291 291 291 290 290 290 290 291 291 291 290 290 290 289 288 288 288 288 289 290 291 291 292 292 292 292 292 292 292 292 291 291 291 291 290 290 290 290 290 290 289 289 289 289 289 289
294 295 296 296 295 295 296 295 295 294 295 295 296 296 296 296 295 294 294 293 293 294 294 294 294 293 293 293 293 293 293 293 293 292 292 291 291 291 291 290 290 290 290 290 290 290 290 290 290 290 289 288 287 287 287 287 287 287 287 288 288 289 290 290 291 291 291 290 290 290 290 290 290 290 289 289 289 289 289 289 289 289 289 289 289
295 295 295 296 296 295 295 295 294 295 295 296 296 296 296 296 296 295 294 294 294 294 295 295 295 294 294 293 293 293 293 293 293 292 292 291 292 292 291 291 290 290 290 290 290 290 290 290 289 289 288 287 286 286 286 286 286 286 286 286 286 287 287 287 288 288 288 288 288 288 288 288 288 288 288 288 288 288 288 288 288 288 287 288 288
294 294 295 295 295 296 295 295 295 295 295 296 296 296 295 295 296 295 295 294 294 295 295 295 295 295 294 294 293 293 293 293 293 293 292 292 292 292 292 292 291 290 290 290 290 290 289 289 289 288 287 286 286 286 286 286 286 286 286 286 286 286 286 286 287 287 287 287 287 287 287 287 287 287 287 287 287 287 287 287 287 287 287 287 288
291 293 294 295 295 296 296 296 295 295 295 296 296 296 295 295 295 295 295 294 294 295 295 295 295 295 295 295 294 294 293 293 293 293 293 293 292 292 292 292 292 291 290 290 290 290 289 289 288 287 286 286 286 287 286 286 286 286 286 286 286 287 287 287 287 287 287 287 287 287 286 286 286 286 286 286 286 286 286 286 286 286 287 287 287
291 291 291 293 294 295 296 296 296 295 295 295 295 295 295 295 296 295 295 295 294 294 294 295 295 295 295 295 295 294 294 293 293 293 293 293 292 292 292 292 292 292 291 291 291 290 290 289 288 287 286 286 287 286 286 286 286 286 286 287 287 287 287 287 287 287 287 287 287 287 287 287 286 286 286 286 285 285 285 285 285 285 286 286 286
Wind_Speed
17 18 20 19 18 18 20 23 21 19 14 9 9 10 12 13 14 15 16 17 16 15 16 16 15 15 15 15 14 14 14 14 14 13 12 10 9 8 9 11 11 10 10 9 9 9 10 10 10 10 10 10 10 9 8 8 7 8 8 8 8 6 5 4 1 2 4 6 4 3 3 2 2 2 1 1 1 2 3 3 4 4 4 3 3
17 18 19 17 15 15 17 19 18 16 9 6 8 9 11 13 15 16 16 16 15 15 16 16 15 15 14 14 14 13 13 14 13 13 12 11 9 8 9 11 11 10 9 9 8 9 10 10 10 9 9 10 10 9 8 8 8 8 8 8 8 7 5 4 3 2 4 4 3 2 3 2 1 1 1 2 2 3 4 4 4 4 4 5 5
17 18 18 16 14 13 12 9 9 10 7 5 7 8 10 13 15 16 16 16 16 16 16 15 15 14 14 14 14 13 13 13 13 12 12 11 9 8 10 10 10 9 8 8 8 9 9 10 10 9 10 10 9 9 8 7 7 8 8 8 8 7 6 5 4 4 3 3 2 1 1 2 1 0 2 3 4 4 6 6 5 5 5 6 6
16 16 16 14 12 11 10 6 5 6 6 5 6 8 11 14 16 16 16 16 17 17 17 16 15 14 14 14 14 13 13 13 13 12 12 11 9 9 10 10 10 8 7 7 7 8 8 9 9 10 10 10 9 8 7 6 6 8 8 8 8 7 7 6 5 3 2 2 3 3 3 3 2 2 3 4 4 5 6 7 7 7 6 7 6
16 15 14 13 10 8 9 8 5 6 6 5 6 7 11 14 16 17 17 17 17 18 18 17 15 14 13 13 13 13 13 13 13 12 12 11 10 10 10 11 10 9 8 7 7 8 8 8 9 9 9 9 8 8 7 6 7 9 9 8 7 6 6 5 4 3 3 3 5 6 6 6 5 5 5 4 4 4 5 6 7 7 7 7 6
16 15 14 13 11 8 8 7 5 6 5 5 6 6 9 12 15 17 18 19 19 19 18 16 14 12 11 11 12 14 14 14 14 12 12 12 12 11 12 12 11 10 9 7 7 8 9 9 9 9 7 6 6 7 7 8 8 9 8 7 6 5 5 4 4 4 5 5 7 7 7 7 7 6 5 5 5 5 5 5 6 6 6 6 7
16 14 13 12 10 9 8 7 6 6 5 6 7 7 10 13 14 17 19 19 19 19 17 15 14 12 11 12 14 15 15 14 13 12 13 13 13 13 13 12 11 10 8 7 7 9 10 10 9 8 7 6 5 6 6 7 7 7 6 6 6 5 5 5 6 6 7 7 8 8 9 8 8 7 7 6 7 7 7 7 6 6 7 7 8
19 14 11 10 9 8 7 7 7 7 7 8 8 9 10 13 15 17 19 18 19 18 17 16 15 13 13 13 13 14 14 15 14 13 13 13 14 13 12 11 11 10 8 7 7 9 11 10 8 8 9 8 7 7 6 6 5 5 5 5 5 5 5 5 5 6 7 8 9 10 10 10 10 9 9 8 8 8 7 8 8 8 9 10 11
23 20 14 10 8 6 5 5 6 8 9 9 9 10 12 15 15 17 18 18 19 17 15 15 15 14 13 13 13 15 16 16 15 13 13 13 13 12 11 11 10 9 8 8 8 9 9 9 9 10 11 10 9 8 7 6 4 3 3 3 3 3 3 4 5 6 7 8 9 10 10 10 10 11 10 10 9 9 9 10 11 11 12 14 15
22 22 20 15 10 6 4 5 5 6 9 10 10 10 14 15 15 16 17 17 18 16 14 14 14 14 14 15 16 16 16 16 14 13 13 13 12 11 11 11 11 9 8 8 9 8 8 11 12 12 11 9 8 7 6 5 3 2 2 2 2 2 3 4 5 6 7 8 8 9 10 10 11 12 12 12 11 11 12 13 14 15 16 18 19
20 20 20 19 14 8 5 5 6 6 7 9 10 11 14 16 16 16 17 17 16 15 13 13 14 14 16 18 17 16 16 16 15 14 14 13 11 11 11 12 12 9 8 9 10 9 11 15 15 13 11 9 7 5 4 3 2 1 2 2 3 3 4 5 6 7 8 8 9 10 11 11 11 12 13 12 13 13 13 15 16 17 18 19 21
19 19 19 19 16 10 6 4 5 6 6 7 9 12 15 18 19 18 18 17 16 14 13 12 12 15 19 19 17 17 17 16 15 15 15 13 11 11 11 13 13 10 9 10 10 11 12 14 13 11 9 6 5 4 2 2 2 2 3 4 5 5 5 6 7 7 8 9 9 10 10 10 9 10 10 11 12 13 13 14 15 16 16 18 19
18 19 19 18 17 13 7 5 4 6 8 8 11 14 17 18 19 17 17 18 17 15 14 13 13 15 18 18 18 17 17 16 15 15 15 14 12 11 11 14 14 11 11 11 11 12 12 11 9 8 5 3 2 1 1 1 2 3 4 5 6 6 7 7 8 8 9 10 10 10 10 9 9 10 11 12 12 12 13 13 14 15 16 17 18
20 21 21 19 18 14 8 6 5 6 8 9 11 15 16 17 17 17 18 19 18 17 16 14 13 13 15 16 18 18 18 16 14 14 15 15 13 12 13 15 15 14 13 12 12 11 10 9 8 6 3 2 2 1 1 1 2 4 5 6 7 7 8 8 8 8 9 9 10 10 10 9 9 10 10 10 11 11 11 12 13 14 15 16 17
22 23 23 22 20 17 12 8 7 5 7 10 11 12 13 14 16 18 20 20 19 19 17 15 13 13 14 16 17 18 18 16 14 14 15 14 13 13 14 14 15 15 14 13 13 12 10 8 7 5 3 3 3 3 3 4 5 6 8 9 9 9 9 9 9 8 9 9 10 10 9 8 9 9 9 9 10 11 11 12 14 15 15 16 16
23 22 22 23 22 20 16 12 9 6 5 7 9 12 15 16 15 16 16 16 18 21 18 15 14 14 14 15 16 16 16 15 14 15 16 15 14 14 14 15 15 16 16 15 14 13 11 9 7 5 3 3 3 5 7 8 9 10 11 11 11 11 10 9 9 9 9 9 9 9 9 9 10 10 10 11 11 12 12 13 14 14 14 14 13
23 22 21 21 21 20 17 14 10 9 8 4 5 8 11 11 9 10 12 14 16 19 18 15 15 15 17 17 15 15 15 15 15 16 16 16 16 15 15 15 16 17 17 16 14 13 12 10 6 3 1 3 6 9 11 12 12 13 14 13 12 11 11 10 10 11 11 11 11 11 12 12 13 13 13 12 11 11 11 11 12 12 12 11 10
22 22 21 19 18 17 16 14 12 11 9 5 2 4 5 4 6 8 11 14 15 17 15 15 16 16 17 17 16 16 16 16 17 17 16 16 17 17 18 18 18 19 18 17 16 15 12 9 6 5 7 9 10 12 14 14 14 14 15 15 14 12 11 11 11 12 12 11 11 12 12 12 12 12 11 10 10 9 9 9 10 10 10 10 9
22 21 20 18 16 14 12 12 13 13 10 5 2 4 5 5 7 7 7 10 14 15 13 16 19 19 18 18 18 18 18 19 19 18 17 17 16 16 16 17 16 16 17 16 15 13 10 8 7 8 10 12 13 14 15 15 15 15 15 15 14 12 11 11 11 11 11 10 10 10 9 9 9 8 8 8 8 8 9 9 9 10 10 10 10
21 19 17 17 17 15 13 10 10 12 11 6 3 6 6 7 10 9 6 9 16 17 14 15 19 20 20 20 20 19 19 20 20 19 17 16 13 10 8 8 7 6 8 9 9 9 8 8 9 10 11 12 14 14 13 14 14 14 13 12 11 11 10 10 9 9 10 9 8 8 8 8 8 9 10 10 11 11 11 11 11 10 10 11 11
20 18 16 15 15 16 15 12 10 10 11 9 8 10 11 13 15 15 11 12 18 19 16 13 14 14 14 15 16 16 16 15 14 13 12 8 6 4 3 3 4 3 4 6 7 8 9 9 10 10 10 11 11 12 12 12 12 11 10 8 8 7 7 7 7 8 8 8 8 8 9 9 10 11 11 12 12 12 12 13 12 11 10 9 8
18 17 17 16 15 16 16 14 12 9 7 7 7 10 13 15 17 17 16 14 13 13 11 7 5 3 2 3 4 5 7 8 7 7 6 3 3 2 2 1 2 3 5 7 8 9 8 8 7 7 8 9 9 9 9 8 7 6 6 5 5 5 6 6 7 8 8 8 8 8 9 9 10 10 11 12 12 11 11 12 11 9 8 7 7
16 16 17 17 17 18 17 16 16 13 9 5 2 4 8 12 14 14 13 10 8 7 5 4 5 6 7 7 7 6 6 7 7 6 4 3 2 3 3 4 6 8 9 8 8 8 7 6 6 6 7 6 6 5 5 5 5 4 4 4 4 5 6 7 7 8 8 8 8 8 8 8 9 9 9 10 9 9 9 9 7 6 6 6 7
13 14 16 18 19 20 20 19 19 19 15 11 6 4 5 7 8 8 7 6 8 9 9 10 11 11 11 11 11 10 9 9 9 8 6 6 6 6 7 8 9 9 8 7 6 6 5 5 4 4 4 4 5 5 5 5 5 4 4 4 4 5 6 6 7 7 8 8 8 9 9 9 9 8 8 7 6 6 6 5 4 4 5 5 5
15 15 16 17 18 19 19 20 20 20 19 17 15 13 11 10 9 8 6 4 4 5 6 6 6 6 7 7 8 8 8 8 8 8 8 8 8 8 8 8 7 6 5 4 4 4 4 4 4 4 5 5 6 6 5 4 3 2 3 3 4 5 5 6 7 7 8 8 8 8 8 8 7 7 6 5 3 2 2 2 2 4 4 5 6
18 18 18 17 17 16 17 19 19 19 18 17 17 17 16 15 16 16 14 13 12 11 10 9 8 7 6 5 4 4 3 3 4 4 4 5 5 5 5 4 4 4 4 4 4 4 4 5 5 5 5 5 5 4 3 2 1 2 2 3 4 5 6 7 8 8 9 9 8 8 7 6 6 6 6 5 4 2 1 1 2 4 5 6 7
21 21 19 18 16 15 15 16 17 17 17 16 16 16 16 15 15 16 16 16 16 14 13 12 11 10 9 9 8 6 4 4 2 1 0 0 0 1 1 1 2 3 3 4 5 5 5 5 5 5 5 5 4 3 2 1 1 2 3 4 5 6 7 8 9 9 10 9 9 8 8 8 8 8 8 8 7 5 4 3 3 4 5 5 5
20 22 22 20 19 17 16 15 15 15 15 14 13 13 14 13 13 14 14 13 13 13 13 12 10 9 9 10 10 8 8 7 6 4 3 3 3 4 5 4 4 4 4 5 6 6 5 4 4 4 4 4 4 3 2 2 3 4 4 4 5 6 7 9 10 10 10 10 9 8 8 8 7 7 7 6 6 5 5 4 3 4 4 4 5
16 18 20 20 20 19 18 17 16 15 15 14 13 13 13 13 12 12 11 11 11 12 12 12 10 8 7 7 7 7 6 6 6 4 4 3 3 3 2 2 2 2 2 3 3 3 3 3 3 3 3 3 3 3 3 3 3 3 3 3 5 6 8 9 10 10 9 8 7 6 6 6 6 5 5 5 4 4 4 4 4 5 5 6 6
17 17 17 18 18 17 17 17 16 16 15 15 15 14 14 13 12 12 11 11 11 9 9 9 9 9 8 7 6 5 5 5 4 3 3 3 3 3 2 2 2 2 2 2 1 0 1 2 3 3 3 4 4 4 3 3 3 3 3 4 5 6 8 9 9 8 7 6 6 5 5 5 4 4 4 4 4 4 4 4 5 5 5 6 7
19 19 18 18 16 15 15 15 15 14 14 14 14 14 13 13 12 12 12 12 11 10 9 8 7 7 7 7 6 5 4 4 3 2 2 2 3 3 3 3 3 3 2 2 1 1 2 3 4 4 4 4 4 4 4 3 3 3 4 6 7 8 8 8 7 6 6 6 6 7 6 5 4 3 3 3 3 3 3 4 4 5 6 7 7
18 18 17 16 15 15 15 15 14 14 14 14 14 14 14 13 13 13 12 11 11 11 10 10 9 8 7 7 5 4 3 2 2 1 2 3 4 4 4 4 3 2 0 0 1 3 4 4 4 5 5 5 5 5 5 5 6 6 7 7 7 6 5 4 4 4 5 6 6 6 5 4 3 1 1 2 3 4 4 4 5 6 7 8 9
16 16 16 15 14 14 15 15 16 15 15 15 14 14 14 14 14 14 14 13 12 11 10 10 9 9 9 8 6 5 3 2 1 1 3 4 5 5 5 4 4 3 3 2 3 4 5 5 5 6 6 6 6 6 6 6 6 5 5 4 3 2 1 2 3 3 4 4 4 4 3 3 3 3 3 4 4 4 5 6 6 6 7 8 9
16 15 14 13 13 13 14 15 15 16 16 15 15 14 14 15 15 15 15 14 13 12 10 10 9 9 9 9 8 6 6 6 5 5 5 5 5 5 4 3 4 5 5 3 4 5 6 6 5 5 5 5 4 4 3 3 2 2 1 1 1 1 2 1 1 2 2 2 3 3 4 5 5 5 5 5 5 5 5 5 5 6 8 9 10
15 15 14 13 12 13 13 14 14 15 15 15 15 14 14 14 15 15 14 14 12 11 10 9 9 10 11 10 9 7 7 7 7 6 5 4 4 3 2 3 5 6 5 2 1 2 3 3 3 3 3 3 3 3 3 2 2 2 2 2 2 1 1 1 1 1 1 3 4 5 5 6 7 7 6 5 5 4 4 5 7 8 10 11 10
14 13 13 12 12 12 13 13 13 14 14 14 14 14 13 14 14 14 14 14 12 11 10 9 10 11 12 11 8 6 5 4 4 4 3 2 2 2 2 4 6 5 2 1 3 4 5 5 5 6 5 5 4 3 3 2 2 2 2 2 2 2 2 3 3 3 3 4 4 5 6 6 6 6 6 5 4 5 6 8 9 10 10 10 9
12 12 11 11 11 12 13 13 13 13 13 13 13 13 13 14 15 16 16 15 14 12 11 10 11 12 11 10 8 6 3 1 1 1 1 1 1 3 4 5 5 2 2 5 7 7 7 7 7 6 6 5 4 4 3 3 3 3 3 3 3 4 5 5 5 5 4 4 5 6 6 6 5 6 6 6 7 8 9 10 10 10 9 8 7
10 11 11 11 12 13 14 14 14 14 13 13 13 13 14 16 17 18 18 16 15 14 12 11 11 12 11 11 10 7 4 1 1 3 3 3 3 3 3 2 3 5 8 9 9 8 7 7 7 6 6 5 5 4 4 4 4 5 5 5 6 6 6 6 6 5 5 5 5 5 5 5 6 6 7 8 8 9 9 9 9 9 9 7 6
10 10 11 11 12 13 14 14 14 13 12 12 12 12 13 15 17 18 17 15 14 13 12 11 12 12 12 12 12 11 8 5 2 1 0 0 1 2 5 7 8 9 10 10 9 9 8 7 7 6 6 5 5 5 5 5 6 7 7 7 6 7 7 6 6 6 6 6 6 6 7 7 7 7 7 7 7 8 8 7 7 8 9 8 7
9 10 10 11 11 12 13 13 12 10 10 10 11 11 12 14 16 17 17 14 11 10 10 11 11 11 12 12 13 13 11 8 6 6 7 7 8 9 10 10 10 10 9 9 9 8 8 7 7 6 5 5 6 6 7 7 8 9 8 8 7 8 8 8 8 8 9 9 9 9 8 7 7 6 6 6 6 6 6 6 7 9 9 9 9
9 9 10 10 11 11 13 13 11 9 8 9 10 10 11 12 14 16 17 16 11 7 7 9 10 10 10 11 11 12 10 8 9 11 11 10 10 9 9 8 8 7 7 6 6 6 6 6 6 6 6 6 6 7 7 8 9 9 8 8 8 9 9 9 9 9 9 9 8 7 7 6 6 5 5 5 5 6 6 6 7 9 9 10 10
7 7 8 10 10 10 12 14 13 12 10 10 11 11 11 12 12 14 16 16 12 8 5 6 8 9 9 9 9 10 9 8 9 10 8 7 7 7 6 5 4 4 4 4 4 4 5 5 5 5 6 6 6 6 6 7 8 8 8 8 8 8 8 8 8 8 7 7 6 5 5 5 5 5 6 6 6 6 6 6 7 8 9 10 10
6 5 6 8 9 9 10 12 12 11 10 10 11 11 11 11 10 11 13 15 13 9 6 5 7 9 9 8 8 9 9 8 8 7 6 6 5 5 4 4 3 3 3 3 3 4 4 4 4 4 4 5 5 5 5 5 5 6 7 8 8 8 8 8 7 6 5 5 4 4 4 4 5 5 6 7 7 6 5 5 6 7 8 8 9
6 5 4 5 7 8 8 10 10 9 9 9 10 11 11 10 8 8 10 13 13 11 8 6 6 8 8 7 7 7 7 7 6 6 5 5 4 4 3 3 3 2 3 3 4 4 4 3 2 3 3 3 3 3 3 3 3 3 5 6 6 7 7 7 6 5 4 3 3 2 3 3 4 4 5 6 6 5 4 4 5 5 6 7 8
5 4 3 4 5 6 7 8 9 9 9 9 9 10 10 10 7 6 8 10 11 11 10 8 7 6 6 6 6 6 5 4 3 3 2 2 2 2 2 2 2 2 3 3 3 3 2 1 1 2 2 2 1 1 2 2 2 3 3 4 4 5 5 6 5 4 3 2 1 1 2 3 3 4 4 4 4 4 3 3 4 5 5 6 7
4 3 3 4 5 6 5 6 8 9 9 10 11 11 10 10 8 6 6 8 9 10 11 10 9 7 6 5 5 5 5 4 3 2 2 1 1 1 1 1 2 2 2 2 2 2 1 1 1 1 1 1 1 2 2 3 3 4 4 4 5 5 5 5 5 4 2 1 1 1 2 2 3 3 3 4 4 3 3 3 4 5 5 6 7
4 3 3 3 5 5 5 6 7 7 8 10 11 10 9 8 8 7 6 6 7 8 9 9 9 9 8 6 5 4 4 4 3 2 1 1 2 2 2 2 2 2 2 2 2 2 2 1 1 1 2 3 2 2 2 3 3 3 4 5 6 6 7 6 5 4 3 2 2 1 1 2 2 3 3 4 4 4 4 5 5 5 6 6 7
5 4 3 3 4 5 6 7 7 7 9 11 10 9 8 9 9 8 7 7 6 6 7 8 9 9 9 8 6 5 4 3 3 2 1 1 2 4 4 5 5 4 3 3 3 3 2 2 3 3 4 3 2 2 1 1 1 1 2 3 4 5 5 5 5 4 3 2 2 1 1 1 2 2 3 4 4 4 5 5 5 6 6 6 6
4 3 3 4 4 6 7 7 7 8 9 10 9 8 9 10 9 9 9 9 9 7 7 8 8 9 9 8 8 7 7 6 4 2 2 3 4 5 5 6 7 6 5 4 4 4 4 4 5 5 3 2 2 2 1 1 1 1 2 2 2 3 3 4 4 3 3 2 2 1 1 1 1 2 3 3 3 4 4 4 4 5 4 4 5
5 5 5 5 6 7 7 7 8 8 9 10 9 9 9 10 10 9 10 12 11 10 10 9 9 10 10 10 9 8 8 8 7 5 4 4 4 4 5 6 6 6 6 6 6 6 6 7 7 5 3 2 2 2 2 2 2 2 2 2 1 2 2 3 3 3 3 2 2 1 1 0 1 1 2 2 2 3 3 3 3 3 3 3 3
8 8 7 7 8 9 9 9 9 9 10 11 11 11 11 11 11 11 11 12 13 13 13 12 12 12 13 12 11 9 8 8 8 7 7 5 5 4 5 5 5 6 7 7 7 8 8 9 9 6 3 3 3 3 3 3 3 3 2 2 1 1 2 3 3 3 3 3 2 2 1 1 0 1 1 2 2 2 2 2 2 3 2 2 1
Wind_Direction
328 325 329 321 299 291 302 306 291 273 260 229 207 206 200 194 191 188 186 189 193 194 194 191 187 186 188 191 192 193 195 194 193 192 189 192 199 206 211 206 205 209 212 213 212 209 209 207 210 216 218 216 213 213 214 216 212 203 201 196 181 184 209 218 234 79 133 156 157 129 111 128 150 150 162 296 266 218 205 203 204 210 218 225 234
333 330 338 339 324 309 306 310 309 301 284 223 201 202 198 194 191 189 190 196 198 194 194 193 188 185 188 193 193 194 197 196 195 196 196 200 207 210 209 203 203 210 214 214 212 210 210 205 205 210 211 208 207 211 213 213 209 203 197 186 172 175 194 200 187 145 138 152 159 116 85 80 104 158 296 296 273 236 216 211 214 222 230 234 239
336 332 338 343 343 340 333 323 314 307 288 233 215 210 205 196 190 191 196 201 201 194 194 197 193 187 187 192 196 197 200 200 199 201 202 206 214 214 206 198 198 205 211 210 207 205 205 199 197 200 201 201 205 207 206 205 208 203 195 185 175 174 184 190 186 173 165 176 200 253 351 33 34 268 279 287 276 248 226 220 223 228 238 246 249
338 332 334 337 339 337 328 314 297 289 277 252 230 215 208 198 189 193 200 205 203 195 195 200 197 189 186 192 199 201 205 207 206 209 212 212 213 207 193 185 186 191 194 195 196 195 197 196 195 196 198 200 202 204 204 209 208 197 189 186 179 173 180 192 194 196 214 239 253 270 288 308 312 285 279 288 286 259 234 228 231 232 237 244 248
335 332 332 334 335 320 299 292 299 300 286 261 235 215 207 200 193 193 199 205 204 197 196 198 195 189 189 196 205 210 216 219 220 222 218 207 198 189 180 177 177 176 171 169 176 183 187 192 195 195 196 196 199 205 210 206 193 184 179 181 180 178 187 200 214 234 257 274 277 276 277 288 299 296 286 284 281 262 236 230 236 237 239 243 243
334 333 334 333 331 322 300 281 286 299 284 249 231 219 213 208 199 196 200 203 202 198 194 192 190 190 195 204 214 223 227 227 227 222 207 193 186 181 177 176 174 170 164 161 169 178 181 185 191 193 195 198 204 212 208 190 179 177 178 185 193 201 211 223 242 253 257 266 273 274 273 276 285 286 278 270 264 256 242 237 239 240 245 251 253
346 336 332 329 322 319 314 287 269 277 268 240 227 222 218 212 201 199 201 202 202 197 189 188 195 200 207 217 226 229 226 219 211 200 191 187 185 181 176 175 174 171 168 171 176 181 184 187 191 188 182 184 189 189 184 179 178 182 190 205 218 222 227 235 245 250 253 258 264 270 271 267 265 267 265 260 258 257 254 256 260 260 264 270 272
6 356 339 326 313 313 320 302 273 260 256 245 234 225 214 206 200 198 199 201 202 195 187 192 205 211 218 225 223 212 203 196 189 184 185 187 186 182 179 180 179 174 177 184 181 184 188 188 182 167 158 157 157 153 155 162 169 179 191 206 216 215 215 221 231 240 249 258 264 269 269 261 254 256 258 257 261 268 271 275 283 285 283 286 287
11 13 8 349 319 305 317 318 288 262 252 247 238 223 208 202 199 197 198 201 199 191 186 198 215 224 223 214 198 188 185 185 184 183 185 186 185 186 187 187 183 179 186 190 183 186 189 177 159 146 142 144 148 146 143 139 135 148 168 179 193 205 213 222 230 238 247 257 263 265 262 255 250 255 262 265 270 279 280 280 285 289 288 288 289
7 12 14 8 351 323 318 329 310 273 249 239 236 223 208 204 201 196 198 202 195 186 189 206 223 227 213 195 185 184 186 186 188 188 187 187 188 188 189 188 183 185 198 194 183 179 167 151 145 142 141 141 143 141 139 136 133 146 161 165 203 233 247 253 256 259 261 262 263 261 257 256 258 264 271 274 276 279 281 282 285 286 287 287 288
5 6 5 5 1 347 337 335 324 301 258 232 229 219 204 199 196 190 191 195 190 186 196 214 222 211 195 189 187 188 190 193 194 193 191 189 186 186 190 191 187 190 197 186 174 161 145 140 142 145 146 146 145 143 147 159 179 224 254 269 272 264 264 268 268 269 270 272 272 271 267 266 267 269 271 273 275 277 280 284 284 282 283 285 286
9 5 3 5 6 358 342 328 320 303 267 227 217 217 205 194 190 186 184 186 186 188 196 203 202 194 189 190 191 192 195 198 198 198 195 190 185 187 192 190 186 185 181 169 160 152 146 146 148 149 149 150 154 160 166 195 235 265 280 289 294 292 285 280 275 271 271 272 274 275 273 271 270 267 267 268 271 274 278 282 283 282 283 284 286
13 11 9 11 14 10 344 316 309 281 252 219 203 208 202 192 187 181 180 185 186 186 188 185 183 189 194 196 197 198 199 199 200 202 197 189 185 181 179 180 182 181 171 161 156 154 153 152 150 146 144 142 150 190 221 269 287 292 293 289 289 289 286 283 279 275 271 265 262 261 262 262 261 259 260 262 265 269 272 274 277 279 281 282 284
20 19 19 21 23 20 359 320 306 272 242 221 205 203 200 198 192 182 184 195 192 184 186 188 187 194 198 200 202 203 201 200 201 198 192 187 183 178 177 181 185 183 175 167 163 160 159 157 151 140 129 116 88 47 332 326 323 314 309 305 298 292 288 285 281 275 272 267 263 262 262 259 258 259 259 261 264 267 269 272 275 277 279 282 284
28 24 23 27 29 25 15 348 323 290 246 230 217 207 201 201 198 191 195 203 194 182 186 194 198 204 204 201 203 201 200 202 198 189 185 182 182 185 188 190 191 189 184 177 173 171 167 159 148 131 101 79 56 23 357 339 325 315 311 309 304 297 291 286 282 276 272 268 264 264 263 261 262 267 272 276 279 280 281 283 283 282 284 287 288
34 29 24 26 27 24 19 3 347 338 297 249 232 225 213 205 205 203 206 210 193 181 187 196 199 205 207 205 205 200 197 197 191 182 179 179 184 191 194 194 192 190 185 179 177 175 168 154 143 130 106 68 15 346 336 331 326 320 312 307 303 298 289 283 282 281 277 272 270 272 273 273 278 286 292 297 297 295 292 290 286 284 286 289 289
37 33 28 25 23 23 18 9 3 358 339 294 244 233 213 202 209 204 210 224 203 180 184 198 200 204 209 210 210 204 195 187 181 179 179 179 185 193 196 195 193 190 186 182 175 169 164 160 160 169 220 320 326 326 324 321 319 318 314 305 300 298 292 287 284 281 278 277 280 283 283 283 288 292 297 300 299 296 292 290 287 286 288 291 292
39 35 31 26 23 23 20 13 9 3 348 325 262 205 177 196 244 219 213 223 201 175 184 201 198 199 203 202 202 199 189 178 175 180 184 185 190 194 195 197 197 193 191 185 176 171 173 183 205 246 275 289 302 310 312 307 301 300 300 294 289 289 289 288 286 285 285 286 288 289 288 288 290 292 294 294 294 293 293 291 290 293 296 298 301
37 36 33 31 29 29 27 19 13 10 360 334 251 178 162 195 215 199 198 200 179 170 186 189 178 179 185 185 185 185 180 173 172 175 179 184 191 192 192 195 196 192 190 188 186 191 200 214 238 262 278 289 296 298 297 295 290 286 283 279 276 275 275 277 281 286 293 300 301 300 298 296 295 297 297 297 294 291 291 291 291 293 296 299 306
31 32 33 35 35 35 38 37 31 32 31 31 137 146 144 161 158 152 177 185 170 172 178 162 152 158 165 168 171 171 172 172 172 175 179 185 193 196 199 209 214 208 204 203 204 209 217 232 252 266 277 286 290 288 285 284 281 277 273 270 269 271 272 276 281 284 289 294 297 296 295 295 296 298 300 300 298 294 292 294 292 289 289 294 299
30 29 31 36 38 38 38 36 35 44 51 60 96 121 130 142 145 146 155 154 150 158 161 148 146 152 153 156 162 165 171 178 182 188 195 204 217 229 235 228 222 225 232 236 234 228 230 242 255 265 272 273 272 273 274 275 274 274 276 277 277 280 282 286 291 291 291 293 295 295 295 295 297 298 298 299 299 296 293 293 291 289 292 296 294
33 33 35 36 38 39 38 33 27 28 43 63 89 111 123 134 140 142 143 139 136 144 146 139 148 155 103 122 163 179 191 201 207 206 208 228 268 292 318 300 247 250 253 253 250 243 242 247 253 261 266 267 268 271 274 277 281 283 287 286 283 283 286 291 296 300 302 303 302 301 301 301 300 300 300 300 301 299 295 294 296 296 297 296 291
32 36 41 42 40 40 39 39 36 30 28 36 70 128 133 138 141 141 144 154 169 180 187 212 247 268 286 284 273 262 230 209 206 202 202 222 257 286 297 281 261 248 236 232 237 239 241 247 252 258 263 267 272 275 278 283 287 285 283 283 285 293 301 308 313 317 319 318 315 313 313 313 312 310 309 306 302 299 298 302 307 306 301 301 304
35 39 44 44 43 42 42 44 43 40 39 40 46 78 119 136 141 141 150 175 200 213 219 225 232 239 244 242 235 224 207 201 204 206 208 223 241 254 252 243 238 232 222 216 224 232 238 244 250 256 261 262 265 267 270 272 272 276 288 301 315 323 324 324 326 327 325 323 322 324 326 326 325 324 322 318 311 305 304 310 318 322 324 328 331
46 48 48 46 44 43 45 47 49 49 51 53 57 63 66 69 76 79 84 103 142 170 174 176 188 197 200 199 194 187 185 191 200 202 202 207 213 217 217 219 226 231 229 226 225 223 229 235 242 255 263 265 265 263 262 260 268 294 319 335 340 338 335 336 336 334 332 332 335 337 337 336 336 336 339 338 331 313 303 309 323 334 339 341 341
48 51 52 52 49 46 46 49 51 53 55 57 61 64 63 63 65 67 68 71 75 80 87 90 93 102 113 122 127 136 151 164 182 203 210 206 199 192 190 202 225 239 244 241 233 232 241 249 256 268 274 269 260 250 244 252 288 323 336 342 341 339 339 341 340 339 341 346 352 354 355 360 5 10 15 20 22 8 337 324 329 331 334 338 338
50 50 51 51 50 47 47 47 48 50 51 52 56 61 61 59 61 61 60 59 58 58 60 60 60 59 57 56 53 44 28 27 37 33 277 207 124 131 151 193 238 257 270 277 279 280 284 285 281 273 261 243 225 210 209 244 303 319 327 331 334 336 337 341 344 347 352 359 8 15 21 26 26 26 28 33 35 29 27 33 11 342 338 341 339
49 49 49 50 49 48 48 48 48 50 49 45 45 51 53 50 48 48 46 41 35 33 34 35 34 28 20 16 16 13 6 7 13 13 357 347 349 1 3 353 332 315 305 297 292 285 278 271 257 235 216 205 200 205 240 289 303 309 316 323 330 336 341 346 349 350 355 5 15 22 26 26 24 24 24 27 28 26 27 29 9 343 338 341 340
45 45 45 46 48 49 49 51 51 53 54 50 47 47 47 43 40 39 37 31 22 16 15 18 21 21 12 3 3 6 8 12 21 24 17 14 25 31 11 329 304 294 268 253 253 252 243 228 209 201 204 215 232 250 266 276 278 281 295 317 332 339 342 342 342 344 352 4 11 14 15 15 16 18 19 18 17 15 12 6 354 345 343 341 336
47 47 44 45 47 48 50 52 52 53 55 55 54 53 52 50 46 43 43 43 38 30 22 17 15 15 13 9 6 5 8 13 20 29 40 55 80 103 131 158 153 147 160 165 159 233 246 231 220 217 224 235 244 250 248 244 246 260 286 312 322 326 327 327 328 336 346 354 359 4 9 12 15 18 14 8 5 2 2 6 6 2 353 345 341
49 49 47 46 46 47 48 52 52 52 53 54 53 53 54 55 55 52 51 50 47 42 36 30 23 15 9 5 1 357 355 359 358 1 25 50 67 79 87 97 108 118 123 102 56 290 259 241 231 225 221 223 227 226 225 230 241 259 280 294 302 307 311 313 321 336 347 355 2 7 8 5 2 359 0 13 25 34 36 28 18 8 4 2 1
49 49 47 46 45 45 46 47 49 50 51 50 49 48 48 51 54 54 51 46 41 35 29 23 20 18 13 10 9 6 2 348 327 337 51 59 63 67 71 77 81 73 72 193 226 237 232 227 225 220 214 216 224 232 242 252 262 271 280 287 291 294 302 318 339 352 356 357 1 4 5 6 12 44 102 83 78 70 55 40 27 19 14 8 2
52 50 48 46 44 44 45 45 45 45 45 44 44 43 42 44 45 44 41 36 31 26 21 17 16 16 15 16 21 30 47 67 76 81 82 83 83 77 69 63 50 21 343 283 240 230 228 230 234 235 238 246 254 259 262 263 264 269 271 271 271 285 351 20 12 3 354 351 0 15 28 39 67 112 122 106 90 67 50 43 34 22 14 10 11
54 52 51 48 46 46 46 43 39 37 38 39 40 40 40 41 38 34 31 28 24 18 15 18 22 23 22 24 33 50 75 93 100 100 99 103 105 95 77 53 16 357 343 311 264 243 240 244 248 249 250 252 249 242 237 232 227 218 205 178 111 76 72 66 28 359 350 6 36 58 62 62 75 92 99 93 81 67 57 49 35 24 24 31 38
54 53 51 50 48 46 42 39 36 35 36 37 37 39 39 37 31 25 23 23 21 17 18 25 31 31 28 28 35 51 70 83 92 101 109 113 111 100 70 22 359 353 349 338 257 210 208 208 200 188 177 169 167 164 157 147 132 118 99 84 81 93 108 112 105 99 83 72 69 74 76 78 85 92 94 90 79 65 54 46 39 40 43 46 51
51 50 48 47 45 41 38 38 38 38 38 38 37 37 35 32 28 25 25 28 29 26 28 38 42 35 28 25 28 40 60 77 88 93 102 100 76 38 14 5 359 352 352 100 117 123 132 132 128 126 124 124 125 122 113 102 95 94 91 93 104 115 121 122 123 117 101 86 85 92 98 103 104 100 95 89 76 63 55 51 49 49 51 51 52
46 46 47 46 44 40 38 40 41 41 41 40 37 35 33 31 31 29 29 32 35 35 37 41 39 31 27 28 30 33 39 72 171 204 230 265 327 341 344 351 356 12 122 124 117 115 116 113 110 106 103 103 104 101 96 94 100 106 109 112 116 117 120 123 125 123 117 113 113 115 116 115 110 98 85 74 68 65 63 57 51 48 49 50 48
44 46 46 44 41 39 39 40 41 41 41 40 40 39 38 36 34 29 26 26 27 29 33 35 29 24 25 29 30 29 29 29 224 232 245 261 287 319 343 17 83 117 121 115 110 107 103 99 98 96 96 98 100 99 100 104 110 113 112 111 113 116 117 117 119 120 122 123 123 123 123 118 107 94 81 71 70 74 74 64 52 48 52 56 53
49 50 49 46 43 42 41 39 36 35 37 40 43 43 41 38 34 29 25 21 17 17 21 23 20 19 22 23 23 25 28 29 27 11 328 303 86 92 103 113 117 116 111 104 99 93 87 86 87 90 97 105 108 109 111 112 112 114 115 113 113 114 114 113 112 113 114 115 115 113 111 106 100 90 80 72 72 77 77 65 49 44 47 50 47
46 46 46 44 42 40 37 34 31 28 30 35 40 40 38 35 33 28 24 20 15 14 17 17 16 17 19 21 23 26 27 35 58 79 91 102 107 110 113 115 114 110 104 98 91 82 76 75 77 84 98 111 115 114 112 110 108 110 115 117 117 116 115 114 111 108 104 100 98 96 95 93 90 85 78 70 66 67 65 53 41 36 35 34 33
39 37 34 32 32 31 30 30 32 32 31 30 33 34 31 27 26 25 22 20 19 20 18 15 14 16 19 25 32 35 38 58 86 97 102 104 105 107 110 111 110 108 102 93 85 78 72 69 73 83 94 104 113 120 122 118 114 112 118 126 129 127 124 120 112 104 95 88 86 86 86 83 77 72 67 60 55 55 54 45 37 33 31 29 26
24 23 21 20 20 21 24 28 33 39 39 33 31 31 27 21 20 20 19 20 23 29 27 16 16 21 26 33 46 53 59 76 94 99 97 93 89 89 93 96 96 94 88 78 68 60 54 55 65 80 88 95 109 122 130 130 125 122 131 144 147 142 137 128 114 102 94 89 88 87 82 77 72 67 62 57 56 57 56 47 36 30 28 26 23
3 8 14 17 15 16 21 26 30 34 36 32 29 27 23 18 16 16 16 18 23 31 34 20 13 19 27 39 57 67 71 77 83 83 78 72 68 64 62 59 56 55 51 38 25 20 23 38 59 82 93 98 106 115 121 126 128 130 141 154 157 153 148 138 125 112 106 107 109 102 85 78 77 73 65 60 60 57 49 37 29 25 24 23 19
348 357 9 15 12 9 15 22 23 22 22 21 21 20 17 13 10 9 11 14 19 26 31 22 6 9 21 38 59 70 73 73 73 72 69 64 60 55 50 46 38 25 7 356 353 350 352 15 53 81 93 93 96 109 120 128 134 135 139 148 154 157 157 154 148 141 131 124 117 98 69 63 66 68 64 61 57 51 37 25 19 18 21 18 13
335 341 349 3 6 2 1 5 8 7 6 6 6 6 7 9 7 1 4 9 14 18 20 16 7 5 11 23 34 42 46 48 49 52 52 47 45 45 38 27 7 352 344 340 339 334 332 8 67 84 88 86 87 147 167 172 175 168 157 155 159 162 163 165 168 167 158 142 107 50 35 34 36 39 43 46 43 35 23 12 1 1 6 6 0
346 343 343 348 354 353 348 350 355 356 354 350 344 340 345 358 3 360 357 3 9 13 13 9 6 4 360 355 356 3 11 15 12 10 15 19 21 34 37 16 344 335 340 351 359 355 355 48 87 72 29 328 286 251 225 213 207 201 198 197 196 197 197 196 196 199 202 207 249 350 5 9 9 9 8 7 5 358 349 342 338 342 347 344 341
20 18 6 348 345 340 331 330 338 339 337 339 340 337 338 347 353 354 352 355 2 7 4 357 355 356 355 348 333 326 339 358 358 352 4 60 62 52 43 28 2 335 332 357 10 3 1 15 14 351 332 314 289 251 221 215 211 209 212 213 213 214 215 213 211 213 217 223 244 283 318 333 344 345 340 337 334 327 323 321 320 322 326 325 328
27 23 2 333 328 329 329 332 333 329 328 335 343 348 348 345 344 348 353 353 351 350 347 345 343 342 343 345 338 316 298 302 327 343 352 25 28 24 21 20 15 358 341 346 355 354 359 4 348 333 323 304 268 221 198 204 211 217 229 230 226 222 220 217 215 214 213 217 230 245 265 296 311 312 308 306 304 301 304 306 306 310 317 323 330
12 358 338 322 316 318 325 330 327 322 324 330 334 336 335 334 335 341 345 342 336 331 330 332 334 330 325 325 327 320 304 289 283 292 310 319 326 334 344 357 6 6 359 357 0 0 359 356 344 332 317 282 235 219 226 250 269 284 280 264 243 228 219 209 202 198 196 197 200 208 230 265 282 285 287 286 284 286 290 292 296 304 313 322 335
358 341 323 311 306 307 311 313 310 309 314 321 322 319 317 318 320 325 329 328 326 322 316 313 316 320 318 311 306 309 311 301 283 272 277 293 303 310 318 332 348 1 2 360 359 359 358 354 347 337 314 261 236 239 257 273 282 287 283 271 241 213 200 189 180 174 171 169 166 161 166 255 278 284 290 293 291 291 292 293 298 307 313 316 330
356 346 331 311 298 294 295 300 305 306 306 310 315 318 320 321 319 316 314 315 315 312 307 302 302 308 310 305 295 291 299 301 290 277 272 273 278 285 297 310 328 345 351 350 348 349 350 350 346 338 310 262 254 262 271 278 283 280 274 269 237 187 178 173 167 163 158 154 150 143 131 106 37 341 331 327 324 323 321 318 321 327 329 331 358